STARLINK-11308, 61246

Orbit data source: Space-Track

STARLINK-11308, 61246 is a payload satellite owned by SpaceX/Seattle (US) in LEO that was launched on Wed, 25 Sep 2024 UTC via an FALCON 9 launch vehicle from the Air Force Western Test Range (AFWTR). Payload-class satellites include a variety of spacecraft equipped with specific instruments for various scientific and technological missions. These include communications satellites like Starlink; space stations such as the ISS; scientific satellites like the Hubble; Earth observation satellites from companies like Planet Labs, Umbra, and HawkEye 360; GPS; miniature CubeSats for education and research; and military/defense satellites.

Not visible in the next 10 days
Identifier
61246, 2024-175D
Orbit
LEO
Last TLE update
3 days ago
Origin
Manufacturer
SpaceX/Seattle
Mission
Operational Commercial Communications
Bus & Motor
STARLINK V2M, Unknown motor
Mass
730 kg wet, ~700 kg dry
Launch date (UTC)
2024-09-25 (7 months ago)
Launch vehicle
FALCON 9
Launch site
Air Force Western Test Range (AFWTR)
Object type
Payload
Rocket body
Debris
Shape & HBR
Box + 2 Pan, 29 m
Radar Cross Section
36.964 m², Large (>1 m²)

Expand to show TLE details & history

TLE from 3 days ago
0 STARLINK-11308
1 61246U 24175D   25118.43703897 -.00002412  00000-0 -15048-4 0  9999
2 61246  53.1577 170.2649 0001180  99.8904 260.2247 15.69723934 33858
Epoch: 2025-04-28T10:29Z
Definitive object data (Epoch: 2025-04-28T10:29:20.167Z)
Latitude
-0.00001°
Longitude
156.27979°
Altitude
360.737 km
Speed
7.694 km/s
True Right ascension
11h 21m 03s
True Declination
0° 00' 00"
Sunlit
Object was in full shadow at TLE epoch
Visualization TLE readout
Latitude
-52.07698°
Longitude
36.80189°
Altitude
378.46 km
Speed
7.682 km/s
Apparent Right ascension
22h 26m 23s
Apparent Declination
-67° 07' 22"
Sunlit
Object is in daylight
Visualization observer readout
Local Sidereal Time
06:47:09
Azimuth
209.441° SW
Elevation
-49.732°
Doppler factor
1
Orbital elements
Apogee altitude
360.743 km
Perigee altitude
359.153 km
Semi-major axis
6,738.085 km
Eccentricity
0.000118
Inclination
53.1577°
RAAN
170.2649°
Arg. of periapsis
99.8904°
True anomaly
260.21137°
Mean anomaly
260.2247°
Eccentric anomaly
260.21804°
Mean motion
3.92409 °/min
BSTAR
-0.000015048
Orbital period
91.74 mins
Loading maneuver chart data...
Loading SW <> Apogee altitude chart data...
Loading historical data...
Loading historical data...
Loading historical data...
Loading historical data...
Loading historical data...
Loading historical data...
Loading historical data...

STARLINK-11308 Visibility forecast

Observer location: undefined°, undefined°

STARLINK-11308 is not visible in the next 10 days
Span
Click to sort rows by Start time (UTC) header in descending order
Start Az.
Max El. time (UTC)
Max El. Az.
Max El.
End time (UTC)
End Az.
|